Regional Weather Roundup
Issued by NWS

Home | Current Version | Previous Version | Text Only | Print | Product List | Glossary Off
Versions: 1 2 3 4 5 6 7 8 9 10 11 12 13 14 15 16 17 18 19 20 21 22 23 24 25 26 27 28 29 30 31 32 33 34 35 36 37 38 39 40 41 42 43 44 45 46 47 48 49 50

000
ASUS43 KLMK 011210
RWRKY
KENTUCKY REGIONAL WEATHER ROUNDUP
NATIONAL WEATHER SERVICE LOUISVILLE KY
800 AM EDT WED APR 01 2015

NOTE "FAIR" INDICATES FEW OR NO CLOUDS BELOW 12,000 FEET
WITH NO SIGNIFICANT WEATHER AND/OR OBSTRUCTIONS TO VISIBILITY.

KYZ001>023-026-027-061>063-070>075-011300-
WESTERN AND SOUTH CENTRAL KENTUCKY

CITY           SKY/WX    TMP DP  RH WIND       PRES   REMARKS
PADUCAH        CLEAR     43  36  76 CALM      30.05R
HENDERSON      CLEAR     37  34  87 CALM      30.09R
OWENSBORO      CLEAR     44  37  76 E3        30.11R
HOPKINSVILLE   CLEAR     46  36  67 SE2       30.07R
BOWLING GREEN  CLEAR     37  33  85 CALM      30.11R
GLASGOW        CLEAR     36  33  87 CALM      30.12R
$$

KYZ024-025-028>034-038-045-046-053-011300-
NORTH CENTRAL KENTUCKY

CITY           SKY/WX    TMP DP  RH WIND       PRES   REMARKS
LOUISVILLE/SDF CLEAR     44  36  73 E3        30.12R
LOUISVILLE/LOU CLEAR     42  36  79 CALM      30.12R
FORT KNOX      CLEAR     42  35  77 E3        30.10R
$$

KYZ035>037-039>044-047>052-055>060-089>105-011300-
NORTHEAST KENTUCKY

CITY           SKY/WX    TMP DP  RH WIND       PRES   REMARKS
LEXINGTON      CLEAR     35  32  88 CALM      30.11R FOG
COVINGTON      CLEAR     34  31  88 S5        30.10R WCI  30
FRANKFORT      CLEAR     34  31  88 CALM      30.11R
$$

KYZ054-064>069-076>088-106>120-011300-
SOUTHEAST KENTUCKY

CITY           SKY/WX    TMP DP  RH WIND       PRES   REMARKS
JACKSON        CLEAR     38  32  79 NE3       30.10R
LONDON         CLEAR     40  33  76 CALM      30.10R
SOMERSET       CLEAR     36  32  87 CALM      30.12R
MIDDLESBORO    CLEAR     37  34  89 CALM      30.10R
MONTICELLO     SUNNY     33  30  89 CALM      30.13R
$$



USA.gov is the U.S. government's official web portal to all federal, state and local government web resources and services.